OZ0AJ-13 Weather Reports


time (UTC)temp
C
wind
direction
speed
KPH
gust
KPH
rain 1hr
cm
rain 24hr
cm
rain mn
cm
humidity
%
barometer
mb
20260507113521 13 19 4.8 14.5 0.00 0.00 0.00 61 1017.0
20260507112517 13 19 4.8 14.5 0.00 0.00 0.00 60 1017.2
20260507111533 13 19 4.8 14.5 0.00 0.00 0.00 61 1017.3
20260507110529 13 19 4.8 14.5 0.00 0.00 0.00 64 1017.1
20260507105525 12 19 4.8 14.5 0.00 0.00 0.00 68 1017.1
20260507104522 12 19 4.8 14.5 0.00 0.00 0.00 69 1017.0
20260507103518 12 19 4.8 14.5 0.00 0.00 0.00 71 1017.0
20260507102534 13 19 4.8 14.5 0.00 0.00 0.00 65 1017.0
20260507101530 12 19 4.8 14.5 0.00 0.00 0.00 66 1017.0
20260507100526 12 19 4.8 14.5 0.00 0.00 0.00 67 1016.9
20260507095522 12 19 4.8 14.5 0.00 0.00 0.00 68 1016.9
20260507094518 12 19 4.8 14.5 0.00 0.00 0.00 68 1016.8
20260507093534 12 19 4.8 14.5 0.00 0.00 0.00 72 1016.7
20260507092530 11 19 4.8 14.5 0.00 0.00 0.00 72 1016.6
20260507091526 11 19 4.8 14.5 0.00 0.00 0.00 73 1016.6
20260507090522 11 19 4.8 14.5 0.00 0.00 0.00 73 1016.6
20260507085518 11 19 4.8 14.5 0.00 0.00 0.00 74 1016.5
20260507084535 11 19 4.8 14.5 0.00 0.00 0.00 74 1016.5
20260507083531 11 19 4.8 14.5 0.00 0.00 0.00 75 1016.3
20260507082527 10 19 4.8 14.5 0.00 0.00 0.00 74 1016.4
20260507081523 10 19 4.8 14.5 0.00 0.00 0.00 75 1016.3
20260507080519 10 19 4.8 14.5 0.00 0.00 0.00 75 1016.2
20260507075535 10 19 4.8 14.5 0.00 0.00 0.00 76 1016.2
20260507074531 10 19 4.8 14.5 0.00 0.00 0.00 76 1016.1
20260507042527 5 19 4.8 14.5 0.00 0.00 0.00 75 1014.9
20260507041523 5 19 4.8 14.5 0.00 0.00 0.00 75 1014.7
20260507040519 5 19 4.8 14.5 0.00 0.00 0.00 74 1014.6
20260507035535 5 19 4.8 14.5 0.00 0.00 0.00 74 1014.5
20260507034531 5 19 4.8 14.5 0.00 0.00 0.00 73 1014.6
20260507033526 6 19 4.8 14.5 0.00 0.00 0.00 73 1014.4
20260507032522 6 19 4.8 14.5 0.00 0.00 0.00 72 1014.3
20260507031518 6 19 4.8 14.5 0.00 0.00 0.00 71 1014.3
20260507030534 6 19 4.8 14.5 0.00 0.00 0.00 70 1014.3
20260507025530 6 19 4.8 14.5 0.00 0.00 0.00 69 1014.4
20260507024526 6 19 4.8 14.5 0.00 0.00 0.00 68 1014.3
20260507023522 7 19 4.8 14.5 0.00 0.00 0.00 68 1014.2
20260507022517 7 19 4.8 14.5 0.00 0.00 0.00 67 1014.2
20260507021533 7 19 4.8 14.5 0.00 0.00 0.00 66 1014.0
20260507020530 7 19 4.8 14.5 0.00 0.00 0.00 65 1014.0
20260507015525 7 19 4.8 14.5 0.00 0.00 0.00 65 1014.0
20260507014521 7 19 4.8 14.5 0.00 0.00 0.00 64 1013.9
20260507013517 7 19 4.8 14.5 0.00 0.00 0.00 64 1013.8
20260507012533 7 19 4.8 14.5 0.00 0.00 0.00 64 1013.8
20260507011529 7 19 4.8 14.5 0.00 0.00 0.00 64 1013.8
20260507010525 7 19 4.8 14.5 0.00 0.00 0.00 64 1013.7
20260507005521 7 19 4.8 14.5 0.00 0.00 0.00 65 1013.6
20260507004517 7 19 4.8 14.5 0.00 0.00 0.00 65 1013.6
20260507003533 7 19 4.8 14.5 0.00 0.00 0.00 65 1013.5
20260507002528 7 19 4.8 14.5 0.00 0.00 0.00 65 1013.5
20260507001524 7 19 4.8 14.5 0.00 0.00 0.00 64 1013.5
20260507000520 7 19 4.8 14.5 0.00 0.00 0.00 64 1013.4
20260506235515 7 19 4.8 14.5 0.00 0.00 0.00 64 1013.4
20260506234531 7 19 4.8 14.5 0.00 0.00 0.00 65 1013.4
20260506233527 7 19 4.8 14.5 0.00 0.00 0.00 65 1013.3
20260506232522 7 19 4.8 14.5 0.00 0.00 0.00 65 1013.3
20260506231518 7 19 4.8 14.5 0.00 0.00 0.00 64 1013.4
20260506230534 7 19 4.8 14.5 0.00 0.00 0.00 65 1013.2
20260506225530 7 19 4.8 14.5 0.00 0.00 0.00 64 1013.2
20260506224526 8 19 4.8 14.5 0.00 0.00 0.00 64 1013.2
20260506223521 8 19 4.8 14.5 0.00 0.00 0.00 64 1013.1
20260506222517 8 19 4.8 14.5 0.00 0.00 0.00 64 1013.2
20260506221533 8 19 4.8 14.5 0.00 0.00 0.00 64 1013.1
20260506220528 8 19 4.8 14.5 0.00 0.00 0.00 63 1013.1
20260506215524 8 19 4.8 14.5 0.00 0.00 0.00 64 1013.0
20260506214519 8 19 4.8 14.5 0.00 0.00 0.00 65 1012.8
20260506213535 8 19 4.8 14.5 0.00 0.00 0.00 66 1012.8
20260506212531 8 19 4.8 14.5 0.00 0.00 0.00 67 1012.7
20260506211526 8 19 4.8 14.5 0.00 0.00 0.00 67 1012.7
20260506210521 8 19 4.8 14.5 0.00 0.00 0.00 67 1012.8
20260506205517 8 19 4.8 14.5 0.00 0.00 0.00 67 1012.8
20260506204533 8 19 4.8 14.5 0.00 0.00 0.00 67 1012.7
20260506203529 8 19 4.8 14.5 0.00 0.00 0.00 67 1012.6
20260506202524 8 19 4.8 14.5 0.00 0.00 0.00 67 1012.6
20260506201520 8 19 4.8 14.5 0.00 0.00 0.00 67 1012.5
20260506200516 9 19 4.8 14.5 0.00 0.00 0.00 67 1012.4
20260506195532 9 19 4.8 14.5 0.00 0.00 0.00 67 1012.4
20260506194528 9 19 4.8 14.5 0.00 0.00 0.00 67 1012.2
20260506193523 9 19 4.8 14.5 0.00 0.00 0.00 67 1012.1
20260506192519 9 19 4.8 14.5 0.00 0.00 0.00 66 1012.1
20260506191535 9 19 4.8 14.5 0.00 0.00 0.00 66 1011.9
20260506190531 9 19 4.8 14.5 0.00 0.00 0.00 66 1011.8
20260506185526 9 19 4.8 14.5 0.00 0.00 0.00 66 1011.8
20260506183518 10 19 4.8 14.5 0.00 0.00 0.00 65 1011.7
20260506182535 10 19 4.8 14.5 0.00 0.00 0.00 64 1011.5
20260506181530 10 19 4.8 14.5 0.00 0.00 0.00 63 1011.5
20260506180526 10 19 4.8 14.5 0.00 0.00 0.00 62 1011.4
20260506175522 10 19 4.8 14.5 0.00 0.00 0.00 62 1011.4
20260506174518 10 19 4.8 14.5 0.00 0.00 0.00 61 1011.4
20260506173534 11 19 4.8 14.5 0.00 0.00 0.00 59 1011.3
20260506172529 11 19 4.8 14.5 0.00 0.00 0.00 59 1011.1
20260506171525 11 19 4.8 14.5 0.00 0.00 0.00 58 1011.1
20260506170521 11 19 4.8 14.5 0.00 0.00 0.00 57 1011.1
20260506165517 12 19 4.8 14.5 0.00 0.00 0.00 57 1011.2
20260506164533 11 19 4.8 14.5 0.00 0.00 0.00 57 1011.1
20260506163529 12 19 4.8 14.5 0.00 0.00 0.00 57 1011.1
20260506162525 12 19 4.8 14.5 0.00 0.00 0.00 56 1011.1
20260506161520 12 19 4.8 14.5 0.00 0.00 0.00 55 1010.9
20260506160516 12 19 4.8 14.5 0.00 0.00 0.00 56 1011.0
20260506155532 12 19 4.8 14.5 0.00 0.00 0.00 55 1010.9
20260506154529 13 19 4.8 14.5 0.00 0.00 0.00 55 1011.0
20260506153524 13 19 4.8 14.5 0.00 0.00 0.00 54 1010.8
20260506152520 13 19 4.8 14.5 0.00 0.00 0.00 53 1011.0
20260506151516 14 19 4.8 14.5 0.00 0.00 0.00 53 1010.9
20260506150532 14 19 4.8 14.5 0.00 0.00 0.00 52 1010.8
20260506145527 15 19 4.8 14.5 0.00 0.00 0.00 51 1010.7
20260506144523 16 19 4.8 14.5 0.00 0.00 0.00 49 1010.8
20260506143519 15 19 4.8 14.5 0.00 0.00 0.00 50 1010.9
20260506142535 13 19 4.8 14.5 0.00 0.00 0.00 53 1010.8
20260506141531 14 19 4.8 14.5 0.00 0.00 0.00 52 1010.8
20260506140527 15 19 4.8 14.5 0.00 0.00 0.00 49 1010.8
20260506135522 16 19 4.8 14.5 0.00 0.00 0.00 43 1010.9
20260506134518 15 19 4.8 14.5 0.00 0.00 0.00 43 1010.8
20260506133534 16 19 4.8 14.5 0.00 0.00 0.00 42 1010.9
20260506132530 16 19 4.8 14.5 0.00 0.00 0.00 41 1010.9
20260506131526 17 19 4.8 14.5 0.00 0.00 0.00 42 1010.8
20260506130521 18 19 4.8 14.5 0.00 0.00 0.00 40 1011.0
20260506125517 18 19 4.8 14.5 0.00 0.00 0.00 40 1010.9
20260506124533 17 19 4.8 14.5 0.00 0.00 0.00 43 1010.8
20260506123529 17 19 4.8 14.5 0.00 0.00 0.00 43 1011.0
20260506122525 17 19 4.8 14.5 0.00 0.00 0.00 44 1010.8
20260506121520 16 19 4.8 14.5 0.00 0.00 0.00 46 1011.0
20260506120516 15 19 4.8 14.5 0.00 0.00 0.00 48 1011.1
20260506115532 15 19 4.8 14.5 0.00 0.00 0.00 50 1011.1
20260506114528 14 19 4.8 14.5 0.00 0.00 0.00 51 1011.2